Regional Weather Roundup
Issued by NWS

Home | Current Version | Previous Version | Text Only | Print | Product List | Glossary Off
Versions: 1 2 3 4 5 6 7 8 9 10 11 12 13 14 15 16 17 18 19 20 21 22 23 24 25 26 27 28 29 30 31 32 33 34 35 36 37 38 39 40 41 42 43 44 45 46 47 48 49 50

000
ASUS45 KPSR 291910
RWRAZ

ARIZONA HOURLY REGIONAL WEATHER ROUNDUP
NATIONAL WEATHER SERVICE PHOENIX AZ
1200 PM MST MON JUN 29 2015

NOTE: FAIR INDICATES FEW OR NO CLOUDS BELOW 12,000 FEET WITH NO
SIGNIFICANT WEATHER AND/OR OBSTRUCTIONS TO VISIBILITY.

AZZ001>003-036-292000-
NORTHWEST ARIZONA

CITY           SKY/WX    TMP DP  RH WIND       PRES   REMARKS
BULLHEAD CITY  SUNNY    104  55  20 SW9       29.84F HX 103
KINGMAN        SUNNY     98  49  18 S7        30.06F
$$

AZZ004>008-015-016-018-292000-
NORTH CENTRAL ARIZONA

CITY           SKY/WX    TMP DP  RH WIND       PRES   REMARKS
GRAND CANYON   MOSUNNY   83  45  26 VRB3      30.32S
WILLIAMS       PTSUNNY   82  48  30 VRB7G13   30.38F
PRESCOTT       MOSUNNY   91  48  22 VRB3      30.19F
FLAGSTAFF      CLOUDY    81  45  28 W6        30.34F
PAYSON         SUNNY     91  48  22 S8G16     30.21F
PAGE           SUNNY     96  46  18 NE3       30.09F
$$

AZZ009>014-017-292000-
NORTHEAST ARIZONA

CITY           SKY/WX    TMP DP  RH WIND       PRES   REMARKS
WINSLOW        SUNNY     95  48  20 N3        30.17F
SAINT JOHNS    SUNNY     92  43  18 N8        30.22F
WINDOW ROCK    SUNNY     90  42  18 CALM      30.29F
SHOW LOW       PTSUNNY   82  43  24 W3        30.29F
$$

AZZ023-292000-
GREATER PHOENIX AREA

CITY           SKY/WX    TMP DP  RH WIND       PRES   REMARKS
PHOENIX        MOSUNNY  104  60  23 SW8       29.87F HX 105
BUCKEYE        SUNNY    100  61  27 S7        29.89F HX 101
GLENDALE       MOSUNNY  102  61  25 SE3       29.90F HX 103
LUKE AFB       SUNNY    100  61  27 SW8       29.87F HX 101
DEER VALLEY    SUNNY     99  59  26 SW6       29.90F
SCOTTSDALE     SUNNY     99  57  24 VRB3      29.92F
MESA-FALCON    MOSUNNY  100  59  25 SW8       29.90F HX 100
MESA-GATEWAY   MOSUNNY   99  61  28 W7        29.93F
CHANDLER       MOSUNNY   99  61  28 W8        29.90F
$$

AZZ027-028-292000-
SOUTHWEST MARICOPA COUNTY AND PINAL COUNTY

CITY           SKY/WX    TMP DP  RH WIND       PRES   REMARKS
CASA GRANDE    SUNNY     97  63  32 CALM      29.91F
GILA BEND      MOSUNNY  101  60  26 VRB3      29.87F HX 101
$$

AZZ503-504-507>509-292000-
SOUTHEAST ARIZONA

CITY           SKY/WX    TMP DP  RH WIND       PRES   REMARKS
TUCSON         SUNNY     97  54  23 SW7       30.00F
DAVIS-MONTHAN  SUNNY     96  56  25 NW8       29.99F
RYAN FIELD     SUNNY     99  55  23 NW7       29.99F
NOGALES        MOSUNNY   93  56  28 CALM      30.09F
SIERRA VISTA   MOSUNNY   90  47  23 NE8       30.16F
DOUGLAS        SUNNY     94  49  21 MISG      30.09F
SAFFORD        SUNNY     95  53  24 VRB5      30.01F
$$

AZZ020-021-025-026-031-292000-
SOUTHWEST ARIZONA

CITY           SKY/WX    TMP DP  RH WIND       PRES   REMARKS
YUMA           PTSUNNY  103  64  28 S13       29.85F HX 106
$$

CAZ031-033-041-043-047-048-061-292000-
SOUTHERN CALIFORNIA

CITY           SKY/WX    TMP DP  RH WIND       PRES   REMARKS
DOWNTOWN L.A.  PTSUNNY   87  62  43 CALM      29.89S
L.A. AIRPORT   PTSUNNY   77  64  64 W8        29.91S
SAN DIEGO      PTSUNNY   76  63  64 W8        29.93S
BURBANK        MOSUNNY   90  58  33 SE10      29.91S
ONTARIO        CLOUDY    88  55  32 W5        29.92S
RIVERSIDE      CLOUDY    88  53  30 VRB5      29.91F
PALM SPRINGS   MOSUNNY  103  56  21 VRB7      29.86F HX 102
EL CENTRO NAS  PTSUNNY  100  63  29 VRB5      29.83F HX 102
IMPERIAL       CLOUDY    99  69  37 SE9       29.81F HX 105
BLYTHE         MOSUNNY  106  61  23 SE12      29.84S HX 107
NEEDLES        SUNNY    110  52  14 SE10      29.85F HX 107
$$

NVZ020-UTZ003-292000-
SOUTHERN NEVADA-UTAH

CITY           SKY/WX    TMP DP  RH WIND       PRES   REMARKS
LAS VEGAS      MOSUNNY  104  45  13 VRB7      29.90F HX 100
SALT LAKE CITY MOSUNNY   97  50  20 VRB7G16   30.06F
$$

NMZ009-TXZ055-292000-
NEW MEXICO-WEST TEXAS

CITY           SKY/WX    TMP DP  RH WIND       PRES   REMARKS
ALBUQUERQUE    MOSUNNY   89  44  20 NW9       30.21F
EL PASO        MOSUNNY   92  46  20 VRB6      30.09F
$$


........................KEY........................
SKY/WX - SKY CONDITION/WEATHER
TMP    - TEMPERATURE IN FAHRENHEIT
DP     - DEW POINT IN FAHRENHEIT
RH     - RELATIVE HUMIDITY IN PERCENT
WIND   - DIRECTION AND SPEED IN MILES PER HOUR (MPH)
VRB    - VARIABLE WIND DIRECTION
PRES   - MEAN SEA LEVEL PRESSURE IN INCHES OF MERCURY
         F - FALLING PRESSURE   R - RISING PRESSURE
         S - STEADY PRESSURE
VSB    - VISIBILITY IN MILES
HX     - HEAT INDEX IN FAHRENHEIT
WCI    - WIND CHILL INDEX IN FAHRENHEIT
TC     - TEMPERATURE IN CELSIUS WHICH IS ALSO KNOWN AS
         TEMPERATURE IN CENTIGRADE
AFB    - AIR FORCE BASE
         LUKE AFB IS LUKE AIR FORCE BASE
         DAVIS-MONTHAN IS DAVIS-MONTHAN AIR FORCE BASE
NAS    - NAVAL AIR STATION
         EL CENTRO NAS IS EL CENTRO NAVAL AIR STATION
N/A    - NOT AVAILABLE



USA.gov is the U.S. government's official web portal to all federal, state and local government web resources and services.